DELTA 1 DEB, 7152

Orbit data source: Space-Track

DELTA 1 DEB, 7152 is space debris in SSO originally from a launch on Tue, 06 Nov 1973 UTC launched from the Air Force Western Test Range (AFWTR). Debris objects in space refer to the collection of defunct objects orbiting the Earth. Examples of debris include non-operational satellites, rocket bodies, and fragments generated from explosions, collisions, or faulty payload assembly.

Loading next visibility...
Identifier
7152, 1973-086DS
Orbit
SSO
Country
Flag of USUS
Related business
Manufacturer
Unknown
Mission
Spacecraft
Bus & Motor
Unknown
Mass
Unknown
Launch date (UTC)
1973-11-06 (52 years ago)
Launch vehicle
Unknown
Launch site
Air Force Western Test Range (AFWTR)
Object type
Payload
Rocket body
Debris
Shape & HBR
Unknown shape, 0.2 m
Radar Cross Section
Small (<0.1 m²)

Expand to show TLE details & history
Last TLE update: 11 hours ago

TLE from 11 hours ago
0 DELTA 1 DEB
1  7152U 73086DS  26034.35151685 -.00000029  00000-0  13536-3 0  9991
2  7152 102.2803 355.7249 0081170 307.0619 210.5922 12.28548723342250
Epoch: 2026-02-03T08:26Z
TLE epoch observation values (Epoch: 2026-02-03T08:26:11.055Z)
Latitude
22.2807°
Longitude
-79.26261°
Altitude
1,613.459 km
Speed
7.041 km/s
True Right ascension
12h 03m 16s
True Declination
22° 10' 24"
Sunlit
Object was in full shadow at epoch
Visualization orbit readout
Latitude
Unknown
Longitude
Unknown
Altitude
Unknown
Speed
Unknown
Apparent Right ascension
Unknown
Apparent Declination
Unknown
Sunlit
N/A
Visualization observer readout
Local Sidereal Time
21:08:25
Azimuth
Unknown
Elevation
Unknown
Doppler factor
Unknown
Orbital elements
Apogee altitude
1,617.507 km
Perigee altitude
1,488.751 km
Semi-major axis
7,931.266 km
Eccentricity
0.00812
Inclination
102.2803°
RAAN
355.7249°
Arg. of periapsis
307.0619°
True anomaly
210.12293°
Mean anomaly
210.5922°
Eccentric anomaly
210.35716°
Mean motion
3.07277 °/min
Orbital period
117.16 mins
BSTAR
0.00013536
Loading maneuver chart data...
Computing Atmospheric mass density...
Loading historical data...
Loading historical data...
Loading historical data...
Loading historical data...
Loading historical data...
Loading historical data...
Loading historical data...

Documentation

Showing up to 5 results
|